Tracking 30990 objects as of 8-Jul-2025
HD Live streaming from Space Station
objects crossing your sky now

SL-8 DEB

Track SL-8 DEB now!
10-day predictions


NORAD ID: 21936
Int'l Code: 1991-009CD
Perigee: 1,471.6 km
Apogee: 1,893.7 km
Inclination: 74.1 °
Period: 119.9 minutes
Semi major axis: 8053 km
RCS: 0.0437 m2 (small)
Launch date: February 12, 1991
Source: Commonwealth of Independent States (former USSR) (CIS)
Launch site: PLESETSK MISSILE AND SPACE COMPLEX (PKMTR)

Note: This is SATELLITE DEBRIS
Your satellite tracking list
Your tracking list is empty




NASA's NSSDC Master Catalog

Two Line Element Set (TLE):
1 21936U 91009CD  25186.82177222 -.00000250  00000-0 -25947-2 0  9991
2 21936  74.0629 121.2295 0262059 313.7669  71.4148 12.01192545467161
Source of the keplerian elements: AFSPC